Time,TemperatureF,DewpointF,PressureIn,WindDirection,WindDirectionDegrees,WindSpeedMPH,WindSpeedGustMPH,Humidity,HourlyPrecipIn,Conditions,Clouds,dailyrainin,SoftwareType,DateUTC
2013-11-29 00:00:00,34.0,30.5,30.39,NE,48,0.0,2.0,87,0.00,,---,0.00,VWS V14.01,2013-11-29 06:00:00,
2013-11-29 00:05:00,33.9,30.5,30.39,NE,48,0.0,1.0,87,0.00,,---,0.00,VWS V14.01,2013-11-29 06:05:00,
2013-11-29 00:10:00,33.9,30.5,30.39,NE,48,0.0,1.0,87,0.00,,---,0.00,VWS V14.01,2013-11-29 06:10:00,
2013-11-29 00:15:00,33.8,30.4,30.39,NE,48,0.0,1.0,87,0.00,,---,0.00,VWS V14.01,2013-11-29 06:15:00,
2013-11-29 00:20:00,33.6,30.1,30.38,NE,48,0.0,1.0,87,0.00,,---,0.00,VWS V14.01,2013-11-29 06:20:00,
2013-11-29 00:25:00,33.5,30.3,30.38,NE,48,0.0,1.0,88,0.00,,---,0.00,VWS V14.01,2013-11-29 06:25:00,
2013-11-29 00:30:00,33.4,30.2,30.38,NE,48,0.0,1.0,88,0.00,,---,0.00,VWS V14.01,2013-11-29 06:30:00,
2013-11-29 00:35:00,33.3,30.1,30.38,NE,48,0.0,0.0,88,0.00,,---,0.00,VWS V14.01,2013-11-29 06:35:00,
2013-11-29 00:40:00,33.2,30.0,30.38,NE,48,0.0,0.0,88,0.00,,---,0.00,VWS V14.01,2013-11-29 06:40:00,
2013-11-29 00:46:00,33.1,29.9,30.39,NE,48,0.0,0.0,88,0.00,,---,0.00,VWS V14.01,2013-11-29 06:46:00,
2013-11-29 00:51:00,33.0,29.8,30.39,NE,48,0.0,0.0,88,0.00,,---,0.00,VWS V14.01,2013-11-29 06:51:00,
2013-11-29 00:56:00,33.0,29.8,30.39,NE,48,0.0,0.0,88,0.00,,---,0.00,VWS V14.01,2013-11-29 06:56:00,
2013-11-29 01:01:00,32.9,29.7,30.39,NE,48,0.0,0.0,88,0.00,,---,0.00,VWS V14.01,2013-11-29 07:01:00,
2013-11-29 01:06:00,32.8,29.6,30.38,NE,48,0.0,0.0,88,0.00,,---,0.00,VWS V14.01,2013-11-29 07:06:00,
2013-11-29 01:11:00,32.8,29.6,30.38,NE,48,1.0,1.0,88,0.00,,---,0.00,VWS V14.01,2013-11-29 07:11:00,
2013-11-29 01:16:00,32.6,29.5,30.38,NE,48,0.0,1.0,88,0.00,,---,0.00,VWS V14.01,2013-11-29 07:16:00,
2013-11-29 01:21:00,32.6,29.7,30.38,NE,48,0.0,1.0,89,0.00,,---,0.00,VWS V14.01,2013-11-29 07:21:00,
2013-11-29 01:26:00,32.5,29.6,30.38,NE,48,0.0,1.0,89,0.00,,---,0.00,VWS V14.01,2013-11-29 07:26:00,
2013-11-29 01:31:00,32.4,29.5,30.38,NE,48,0.0,0.0,89,0.00,,---,0.00,VWS V14.01,2013-11-29 07:31:00,
2013-11-29 01:36:00,32.3,29.4,30.38,NE,48,1.0,1.0,89,0.00,,---,0.00,VWS V14.01,2013-11-29 07:36:00,
2013-11-29 01:41:00,32.2,29.3,30.38,NE,48,0.0,1.0,89,0.00,,---,0.00,VWS V14.01,2013-11-29 07:41:00,
2013-11-29 01:46:00,32.1,29.2,30.38,NE,48,0.0,1.0,89,0.00,,---,0.00,VWS V14.01,2013-11-29 07:46:00,
2013-11-29 01:51:00,32.0,29.4,30.38,NE,48,0.0,1.0,90,0.00,,---,0.00,VWS V14.01,2013-11-29 07:51:00,
2013-11-29 01:56:00,32.0,29.4,30.38,NE,48,0.0,1.0,90,0.00,,---,0.00,VWS V14.01,2013-11-29 07:56:00,
2013-11-29 02:02:00,31.9,29.3,30.38,NE,48,0.0,0.0,90,0.00,,---,0.00,VWS V14.01,2013-11-29 08:02:00,
2013-11-29 02:07:00,31.8,29.2,30.38,NE,48,0.0,1.0,90,0.00,,---,0.00,VWS V14.01,2013-11-29 08:07:00,
2013-11-29 02:12:00,31.7,29.1,30.38,NE,48,2.0,2.0,90,0.00,,---,0.00,VWS V14.01,2013-11-29 08:12:00,
2013-11-29 02:17:00,31.7,29.1,30.38,NE,48,0.0,2.0,90,0.00,,---,0.00,VWS V14.01,2013-11-29 08:17:00,
2013-11-29 02:22:00,31.7,29.1,30.38,NE,48,0.0,2.0,90,0.00,,---,0.00,VWS V14.01,2013-11-29 08:22:00,
2013-11-29 02:27:00,31.7,29.1,30.37,NE,48,0.0,2.0,90,0.00,,---,0.00,VWS V14.01,2013-11-29 08:27:00,
2013-11-29 02:32:00,31.7,29.1,30.37,NE,48,0.0,1.0,90,0.00,,---,0.00,VWS V14.01,2013-11-29 08:32:00,
2013-11-29 02:37:00,31.6,29.0,30.38,NE,48,0.0,1.0,90,0.00,,---,0.00,VWS V14.01,2013-11-29 08:37:00,
2013-11-29 02:42:00,31.7,29.1,30.37,NE,48,0.0,1.0,90,0.00,,---,0.00,VWS V14.01,2013-11-29 08:42:00,
2013-11-29 02:47:00,31.7,29.1,30.37,NE,48,0.0,1.0,90,0.00,,---,0.00,VWS V14.01,2013-11-29 08:47:00,
2013-11-29 02:52:00,31.7,29.4,30.37,NE,48,0.0,1.0,91,0.00,,---,0.00,VWS V14.01,2013-11-29 08:52:00,
2013-11-29 02:57:00,31.7,29.1,30.37,NE,48,0.0,1.0,90,0.00,,---,0.00,VWS V14.01,2013-11-29 08:57:00,
2013-11-29 03:02:00,31.6,29.0,30.37,NE,48,2.0,2.0,90,0.00,,---,0.00,VWS V14.01,2013-11-29 09:02:00,
2013-11-29 03:07:00,31.5,28.9,30.38,NE,48,0.0,2.0,90,0.00,,---,0.00,VWS V14.01,2013-11-29 09:07:00,
2013-11-29 03:13:00,31.5,28.9,30.38,NE,38,0.0,3.0,90,0.00,,---,0.00,VWS V14.01,2013-11-29 09:13:00,
2013-11-29 03:18:00,31.4,28.8,30.38,NE,38,0.0,3.0,90,0.00,,---,0.00,VWS V14.01,2013-11-29 09:18:00,
2013-11-29 03:23:00,31.4,28.8,30.38,NE,38,0.0,3.0,90,0.00,,---,0.00,VWS V14.01,2013-11-29 09:23:00,
2013-11-29 03:28:00,31.3,28.7,30.38,NE,38,0.0,3.0,90,0.00,,---,0.00,VWS V14.01,2013-11-29 09:28:00,
2013-11-29 03:33:00,31.2,28.6,30.39,NE,38,0.0,0.0,90,0.00,,---,0.00,VWS V14.01,2013-11-29 09:33:00,
2013-11-29 03:38:00,31.0,28.4,30.38,NE,38,0.0,1.0,90,0.00,,---,0.00,VWS V14.01,2013-11-29 09:38:00,
2013-11-29 03:43:00,30.9,28.3,30.39,NE,38,0.0,1.0,90,0.00,,---,0.00,VWS V14.01,2013-11-29 09:43:00,
2013-11-29 03:48:00,30.8,28.2,30.38,NE,38,0.0,1.0,90,0.00,,---,0.00,VWS V14.01,2013-11-29 09:48:00,
2013-11-29 03:53:00,30.8,28.5,30.38,NE,38,0.0,1.0,91,0.00,,---,0.00,VWS V14.01,2013-11-29 09:53:00,
2013-11-29 03:58:00,30.6,28.3,30.39,NE,38,0.0,1.0,91,0.00,,---,0.00,VWS V14.01,2013-11-29 09:58:00,
2013-11-29 04:03:00,30.6,28.3,30.39,NE,38,1.0,2.0,91,0.00,,---,0.00,VWS V14.01,2013-11-29 10:03:00,
2013-11-29 04:08:00,30.6,28.3,30.39,NE,38,1.0,2.0,91,0.00,,---,0.00,VWS V14.01,2013-11-29 10:08:00,
2013-11-29 04:13:00,30.6,28.6,30.39,NE,38,0.0,2.0,92,0.00,,---,0.00,VWS V14.01,2013-11-29 10:13:00,
2013-11-29 04:19:00,30.6,28.6,30.39,NE,38,0.0,2.0,92,0.00,,---,0.00,VWS V14.01,2013-11-29 10:19:00,
2013-11-29 04:24:00,30.6,28.6,30.39,NE,38,0.0,2.0,92,0.00,,---,0.00,VWS V14.01,2013-11-29 10:24:00,
2013-11-29 04:29:00,30.6,28.3,30.39,NE,38,0.0,2.0,91,0.00,,---,0.00,VWS V14.01,2013-11-29 10:29:00,
2013-11-29 04:34:00,30.5,28.2,30.38,NE,38,0.0,1.0,91,0.00,,---,0.00,VWS V14.01,2013-11-29 10:34:00,
2013-11-29 04:39:00,30.4,28.1,30.39,NE,38,0.0,1.0,91,0.00,,---,0.00,VWS V14.01,2013-11-29 10:39:00,
2013-11-29 04:44:00,30.4,28.4,30.39,NE,38,0.0,1.0,92,0.00,,---,0.00,VWS V14.01,2013-11-29 10:44:00,
2013-11-29 04:49:00,30.3,28.3,30.39,NE,38,0.0,1.0,92,0.00,,---,0.00,VWS V14.01,2013-11-29 10:49:00,
2013-11-29 04:54:00,30.3,28.3,30.39,NE,38,0.0,1.0,92,0.00,,---,0.00,VWS V14.01,2013-11-29 10:54:00,
2013-11-29 04:59:00,30.2,28.2,30.39,NE,38,1.0,1.0,92,0.00,,---,0.00,VWS V14.01,2013-11-29 10:59:00,
2013-11-29 05:04:00,30.2,28.2,30.39,NE,38,0.0,1.0,92,0.00,,---,0.00,VWS V14.01,2013-11-29 11:04:00,
2013-11-29 05:09:00,30.2,28.2,30.39,NE,38,0.0,2.0,92,0.00,,---,0.00,VWS V14.01,2013-11-29 11:09:00,
2013-11-29 05:14:00,30.2,28.2,30.39,NE,38,0.0,2.0,92,0.00,,---,0.00,VWS V14.01,2013-11-29 11:14:00,
2013-11-29 05:19:00,30.3,28.3,30.39,NE,38,0.0,3.0,92,0.00,,---,0.00,VWS V14.01,2013-11-29 11:19:00,
2013-11-29 05:24:00,30.4,28.4,30.39,NE,38,0.0,3.0,92,0.00,,---,0.00,VWS V14.01,2013-11-29 11:24:00,
2013-11-29 05:30:00,30.5,28.5,30.39,NE,38,0.0,3.0,92,0.00,,---,0.00,VWS V14.01,2013-11-29 11:30:00,
2013-11-29 05:35:00,30.7,28.7,30.39,NE,38,0.0,0.0,92,0.00,,---,0.00,VWS V14.01,2013-11-29 11:35:00,
2013-11-29 05:40:00,30.7,28.7,30.40,NE,38,0.0,0.0,92,0.00,,---,0.00,VWS V14.01,2013-11-29 11:40:00,
2013-11-29 05:45:00,30.7,28.4,30.40,NE,38,1.0,2.0,91,0.00,,---,0.00,VWS V14.01,2013-11-29 11:45:00,
2013-11-29 05:50:00,30.8,28.5,30.40,NE,38,0.0,2.0,91,0.00,,---,0.00,VWS V14.01,2013-11-29 11:50:00,
2013-11-29 05:55:00,30.8,28.5,30.40,NE,38,0.0,2.0,91,0.00,,---,0.00,VWS V14.01,2013-11-29 11:55:00,
2013-11-29 06:00:00,30.8,28.5,30.41,NE,38,0.0,2.0,91,0.00,,---,0.00,VWS V14.01,2013-11-29 12:00:00,
2013-11-29 06:05:00,30.7,28.4,30.41,NE,38,0.0,0.0,91,0.00,,---,0.00,VWS V14.01,2013-11-29 12:05:00,
2013-11-29 06:10:00,30.6,28.3,30.41,NE,38,0.0,0.0,91,0.00,,---,0.00,VWS V14.01,2013-11-29 12:10:00,
2013-11-29 06:15:00,30.5,28.2,30.42,NE,38,0.0,0.0,91,0.00,,---,0.00,VWS V14.01,2013-11-29 12:15:00,
2013-11-29 06:20:00,30.3,28.0,30.42,NE,38,0.0,0.0,91,0.00,,---,0.00,VWS V14.01,2013-11-29 12:20:00,
2013-11-29 06:25:00,30.3,28.0,30.42,NE,38,0.0,1.0,91,0.00,,---,0.00,VWS V14.01,2013-11-29 12:25:00,
2013-11-29 06:30:00,30.2,28.0,30.43,NE,38,0.0,0.0,91,0.00,,,0.00,weatherlink.com 1.10,2013-11-29 12:30:00,
2013-11-29 06:35:00,30.1,27.8,30.42,NE,38,0.0,0.0,91,0.00,,---,0.00,VWS V14.01,2013-11-29 12:35:00,
2013-11-29 06:41:00,30.1,27.8,30.43,NE,38,0.0,1.0,91,0.00,,---,0.00,VWS V14.01,2013-11-29 12:41:00,
2013-11-29 06:46:00,30.2,28.2,30.43,NE,38,0.0,3.0,92,0.00,,---,0.00,VWS V14.01,2013-11-29 12:46:00,
2013-11-29 06:51:00,30.3,28.3,30.43,NE,38,1.0,3.0,92,0.00,,---,0.00,VWS V14.01,2013-11-29 12:51:00,
2013-11-29 06:56:00,30.6,28.6,30.43,NE,38,0.0,3.0,92,0.00,,---,0.00,VWS V14.01,2013-11-29 12:56:00,
2013-11-29 07:01:00,30.9,28.6,30.43,NE,38,2.0,2.0,91,0.00,,---,0.00,VWS V14.01,2013-11-29 13:01:00,
2013-11-29 07:06:00,31.2,28.9,30.44,NNE,26,2.0,4.0,91,0.00,,---,0.00,VWS V14.01,2013-11-29 13:06:00,
2013-11-29 07:11:00,31.6,29.0,30.44,NNE,26,1.0,4.0,90,0.00,,---,0.00,VWS V14.01,2013-11-29 13:11:00,
2013-11-29 07:16:00,32.0,29.4,30.44,NNE,24,0.0,4.0,90,0.00,,---,0.00,VWS V14.01,2013-11-29 13:16:00,
2013-11-29 07:21:00,32.5,29.6,30.44,NNE,20,2.0,4.0,89,0.00,,---,0.00,VWS V14.01,2013-11-29 13:21:00,
2013-11-29 07:26:00,33.0,29.8,30.44,NNE,20,1.0,4.0,88,0.00,,---,0.00,VWS V14.01,2013-11-29 13:26:00,
2013-11-29 07:31:00,33.5,30.0,30.44,NNE,13,3.0,3.0,87,0.00,,---,0.00,VWS V14.01,2013-11-29 13:31:00,
2013-11-29 07:36:00,34.1,30.4,30.44,NNE,13,2.0,3.0,86,0.00,,---,0.00,VWS V14.01,2013-11-29 13:36:00,
2013-11-29 07:41:00,34.6,30.6,30.44,NNE,13,1.0,3.0,85,0.00,,---,0.00,VWS V14.01,2013-11-29 13:41:00,
2013-11-29 07:46:00,35.2,30.9,30.44,North,11,2.0,3.0,84,0.00,,---,0.00,VWS V14.01,2013-11-29 13:46:00,
2013-11-29 07:52:00,35.7,31.4,30.44,North,11,0.0,3.0,84,0.00,,---,0.00,VWS V14.01,2013-11-29 13:52:00,
2013-11-29 07:57:00,36.3,31.6,30.44,North,360,0.0,4.0,83,0.00,,---,0.00,VWS V14.01,2013-11-29 13:57:00,
2013-11-29 08:02:00,37.1,31.8,30.44,NNW,333,2.0,4.0,81,0.00,,---,0.00,VWS V14.01,2013-11-29 14:02:00,
2013-11-29 08:07:00,38.0,32.4,30.44,NE,35,0.0,5.0,80,0.00,,---,0.00,VWS V14.01,2013-11-29 14:07:00,
2013-11-29 08:12:00,38.5,32.6,30.44,NE,35,0.0,5.0,79,0.00,,---,0.00,VWS V14.01,2013-11-29 14:12:00,
2013-11-29 08:17:00,39.0,32.7,30.44,NNE,30,2.0,5.0,78,0.00,,---,0.00,VWS V14.01,2013-11-29 14:17:00,
2013-11-29 08:22:00,39.7,32.8,30.45,East,88,2.0,5.0,76,0.00,,---,0.00,VWS V14.01,2013-11-29 14:22:00,
2013-11-29 08:27:00,40.4,32.8,30.45,NNE,26,1.0,5.0,74,0.00,,---,0.00,VWS V14.01,2013-11-29 14:27:00,
2013-11-29 08:32:00,41.1,33.1,30.45,NNE,26,4.0,4.0,73,0.00,,---,0.00,VWS V14.01,2013-11-29 14:32:00,
2013-11-29 08:37:00,41.8,33.8,30.45,NNE,17,0.0,5.0,73,0.00,,---,0.00,VWS V14.01,2013-11-29 14:37:00,
2013-11-29 08:42:00,42.3,33.2,30.45,NNE,17,1.0,5.0,70,0.00,,---,0.00,VWS V14.01,2013-11-29 14:42:00,
2013-11-29 08:47:00,43.2,34.1,30.45,NNE,29,4.0,5.0,70,0.00,,---,0.00,VWS V14.01,2013-11-29 14:47:00,
2013-11-29 08:52:00,43.8,33.6,30.45,North,9,2.0,5.0,67,0.00,,---,0.00,VWS V14.01,2013-11-29 14:52:00,
2013-11-29 08:58:00,44.3,33.7,30.45,NNE,16,1.0,5.0,66,0.00,,---,0.00,VWS V14.01,2013-11-29 14:58:00,
2013-11-29 09:03:00,45.0,34.0,30.45,NE,45,0.0,6.0,65,0.00,,---,0.00,VWS V14.01,2013-11-29 15:03:00,
2013-11-29 09:08:00,45.5,34.0,30.45,NNE,29,2.0,6.0,64,0.00,,---,0.00,VWS V14.01,2013-11-29 15:08:00,
2013-11-29 09:13:00,46.0,34.5,30.45,NNE,31,3.0,6.0,64,0.00,,---,0.00,VWS V14.01,2013-11-29 15:13:00,
2013-11-29 09:18:00,46.5,34.6,30.45,ESE,109,1.0,6.0,63,0.00,,---,0.00,VWS V14.01,2013-11-29 15:18:00,
2013-11-29 09:23:00,46.9,34.2,30.45,East,80,5.0,6.0,61,0.00,,---,0.00,VWS V14.01,2013-11-29 15:23:00,
2013-11-29 09:28:00,47.2,34.0,30.46,NNE,31,1.0,6.0,60,0.00,,---,0.00,VWS V14.01,2013-11-29 15:28:00,
2013-11-29 09:33:00,47.6,34.0,30.45,North,355,2.0,6.0,59,0.00,,---,0.00,VWS V14.01,2013-11-29 15:33:00,
2013-11-29 09:38:00,47.9,33.8,30.45,NE,38,4.0,6.0,58,0.00,,---,0.00,VWS V14.01,2013-11-29 15:38:00,
2013-11-29 09:43:00,48.4,33.9,30.45,NNE,13,0.0,6.0,57,0.00,,---,0.00,VWS V14.01,2013-11-29 15:43:00,
2013-11-29 09:48:00,48.8,34.3,30.45,ENE,58,2.0,8.0,57,0.00,,---,0.00,VWS V14.01,2013-11-29 15:48:00,
2013-11-29 09:53:00,49.3,34.7,30.45,NNE,17,0.0,8.0,57,0.00,,---,0.00,VWS V14.01,2013-11-29 15:53:00,
2013-11-29 09:58:00,49.8,34.0,30.44,ENE,61,1.0,4.0,56,0.00,,,0.00,weatherlink.com 1.10,2013-11-29 15:58:00,
2013-11-29 10:04:00,50.3,34.8,30.45,ENE,62,2.0,9.0,55,0.00,,---,0.00,VWS V14.01,2013-11-29 16:04:00,
2013-11-29 10:09:00,50.9,34.9,30.44,NE,42,3.0,9.0,54,0.00,,---,0.00,VWS V14.01,2013-11-29 16:09:00,
2013-11-29 10:14:00,51.3,34.8,30.44,NNE,23,1.0,9.0,53,0.00,,---,0.00,VWS V14.01,2013-11-29 16:14:00,
2013-11-29 10:19:00,51.7,34.7,30.44,North,11,1.0,9.0,52,0.00,,---,0.00,VWS V14.01,2013-11-29 16:19:00,
2013-11-29 10:24:00,52.0,35.4,30.44,ENE,59,0.0,9.0,53,0.00,,---,0.00,VWS V14.01,2013-11-29 16:24:00,
2013-11-29 10:29:00,52.4,35.3,30.43,NNE,17,3.0,9.0,52,0.00,,---,0.00,VWS V14.01,2013-11-29 16:29:00,
2013-11-29 10:34:00,52.7,35.1,30.43,North,350,1.0,4.0,51,0.00,,---,0.00,VWS V14.01,2013-11-29 16:34:00,
2013-11-29 10:39:00,53.0,34.9,30.43,NE,44,3.0,7.0,50,0.00,,---,0.00,VWS V14.01,2013-11-29 16:39:00,
2013-11-29 10:44:00,53.3,34.1,30.43,North,9,6.0,7.0,48,0.00,,---,0.00,VWS V14.01,2013-11-29 16:44:00,
2013-11-29 10:49:00,53.3,34.7,30.43,ENE,72,2.0,7.0,49,0.00,,---,0.00,VWS V14.01,2013-11-29 16:49:00,
2013-11-29 10:54:00,53.6,34.9,30.43,ENE,67,2.0,7.0,49,0.00,,---,0.00,VWS V14.01,2013-11-29 16:54:00,
2013-11-29 10:59:00,54.1,35.9,30.42,NNE,23,3.0,7.0,50,0.00,,---,0.00,VWS V14.01,2013-11-29 16:59:00,
2013-11-29 11:04:00,54.5,35.2,30.42,NE,34,1.0,5.0,48,0.00,,---,0.00,VWS V14.01,2013-11-29 17:04:00,
2013-11-29 11:09:00,54.8,35.5,30.42,NNW,337,2.0,5.0,48,0.00,,---,0.00,VWS V14.01,2013-11-29 17:09:00,
2013-11-29 11:14:00,54.8,35.0,30.42,NNE,17,4.0,7.0,47,0.00,,---,0.00,VWS V14.01,2013-11-29 17:14:00,
2013-11-29 11:20:00,55.0,34.6,30.42,NNE,19,3.0,7.0,46,0.00,,---,0.00,VWS V14.01,2013-11-29 17:20:00,
2013-11-29 11:25:00,55.3,34.9,30.41,NE,38,4.0,7.0,46,0.00,,---,0.00,VWS V14.01,2013-11-29 17:25:00,
2013-11-29 11:30:00,55.2,34.8,30.40,NNW,338,0.0,7.0,46,0.00,,---,0.00,VWS V14.01,2013-11-29 17:30:00,
2013-11-29 11:35:00,55.5,35.1,30.40,North,5,3.0,6.0,46,0.00,,---,0.00,VWS V14.01,2013-11-29 17:35:00,
2013-11-29 11:40:00,55.8,35.9,30.39,NNE,20,0.0,6.0,47,0.00,,---,0.00,VWS V14.01,2013-11-29 17:40:00,
2013-11-29 11:45:00,56.1,35.1,30.39,NNW,345,2.0,6.0,45,0.00,,---,0.00,VWS V14.01,2013-11-29 17:45:00,
2013-11-29 11:50:00,56.6,36.1,30.39,NE,36,1.0,6.0,46,0.00,,---,0.00,VWS V14.01,2013-11-29 17:50:00,
2013-11-29 11:55:00,57.0,35.3,30.38,NNE,13,1.0,6.0,44,0.00,,---,0.00,VWS V14.01,2013-11-29 17:55:00,
2013-11-29 12:00:00,57.4,35.7,30.38,NNE,16,1.0,6.0,44,0.00,,---,0.00,VWS V14.01,2013-11-29 18:00:00,
2013-11-29 12:05:00,57.6,35.3,30.38,East,92,2.0,8.0,43,0.00,,---,0.00,VWS V14.01,2013-11-29 18:05:00,
2013-11-29 12:10:00,57.6,35.3,30.38,NNE,32,1.0,8.0,43,0.00,,---,0.00,VWS V14.01,2013-11-29 18:10:00,
2013-11-29 12:15:00,57.5,34.6,30.37,NE,46,3.0,8.0,42,0.00,,---,0.00,VWS V14.01,2013-11-29 18:15:00,
2013-11-29 12:20:00,57.7,34.8,30.37,NE,34,1.0,8.0,42,0.00,,---,0.00,VWS V14.01,2013-11-29 18:20:00,
2013-11-29 12:25:00,57.7,34.2,30.36,NNE,24,3.0,9.0,41,0.00,,---,0.00,VWS V14.01,2013-11-29 18:25:00,
2013-11-29 12:30:00,58.0,35.1,30.36,North,5,2.0,9.0,42,0.00,,---,0.00,VWS V14.01,2013-11-29 18:30:00,
2013-11-29 12:36:00,58.4,34.8,30.36,NE,34,0.0,4.0,41,0.00,,---,0.00,VWS V14.01,2013-11-29 18:36:00,
2013-11-29 12:41:00,58.9,34.6,30.35,North,11,3.0,7.0,40,0.00,,---,0.00,VWS V14.01,2013-11-29 18:41:00,
2013-11-29 12:46:00,59.0,34.1,30.35,ENE,62,1.0,7.0,39,0.00,,---,0.00,VWS V14.01,2013-11-29 18:46:00,
2013-11-29 12:51:00,59.1,34.8,30.35,NNE,17,0.0,7.0,40,0.00,,---,0.00,VWS V14.01,2013-11-29 18:51:00,
2013-11-29 12:56:00,59.3,35.0,30.35,NNW,333,2.0,7.0,40,0.00,,---,0.00,VWS V14.01,2013-11-29 18:56:00,
2013-11-29 13:01:00,59.3,34.4,30.34,ENE,62,1.0,1.0,39,0.00,,---,0.00,VWS V14.01,2013-11-29 19:01:00,
2013-11-29 13:06:00,59.4,35.7,30.34,North,10,2.0,4.0,41,0.00,,---,0.00,VWS V14.01,2013-11-29 19:06:00,
2013-11-29 13:11:00,59.7,34.1,30.34,NNE,15,2.0,7.0,38,0.00,,---,0.00,VWS V14.01,2013-11-29 19:11:00,
2013-11-29 13:16:00,59.6,34.6,30.34,North,5,3.0,7.0,39,0.00,,---,0.00,VWS V14.01,2013-11-29 19:16:00,
2013-11-29 13:21:00,59.7,34.1,30.34,NNW,342,3.0,9.0,38,0.00,,---,0.00,VWS V14.01,2013-11-29 19:21:00,
2013-11-29 13:27:00,60.1,35.1,30.34,North,11,0.0,9.0,39,0.00,,---,0.00,VWS V14.01,2013-11-29 19:27:00,
2013-11-29 13:32:00,60.4,34.0,30.34,NNE,24,1.0,4.0,37,0.00,,---,0.00,VWS V14.01,2013-11-29 19:32:00,
2013-11-29 13:37:00,60.5,34.1,30.35,ENE,74,2.0,6.0,37,0.00,,---,0.00,VWS V14.01,2013-11-29 19:37:00,
2013-11-29 13:42:00,60.6,34.9,30.34,NE,49,2.0,8.0,38,0.00,,---,0.00,VWS V14.01,2013-11-29 19:42:00,
2013-11-29 13:47:00,60.7,35.0,30.34,NE,42,0.0,8.0,38,0.00,,---,0.00,VWS V14.01,2013-11-29 19:47:00,
2013-11-29 13:52:00,60.8,34.4,30.34,NNE,13,4.0,8.0,37,0.00,,---,0.00,VWS V14.01,2013-11-29 19:52:00,
2013-11-29 13:57:00,60.9,33.1,30.34,ENE,63,3.0,8.0,35,0.00,,---,0.00,VWS V14.01,2013-11-29 19:57:00,
2013-11-29 14:02:00,60.7,33.6,30.34,NNE,31,2.0,3.0,36,0.00,,---,0.00,VWS V14.01,2013-11-29 20:02:00,
2013-11-29 14:07:00,60.8,34.4,30.34,NNE,30,2.0,6.0,37,0.00,,---,0.00,VWS V14.01,2013-11-29 20:07:00,
2013-11-29 14:12:00,60.9,34.5,30.34,North,5,4.0,6.0,37,0.00,,---,0.00,VWS V14.01,2013-11-29 20:12:00,
2013-11-29 14:17:00,60.8,33.0,30.34,NNE,27,1.0,7.0,35,0.00,,---,0.00,VWS V14.01,2013-11-29 20:17:00,
2013-11-29 14:22:00,60.8,33.7,30.34,NNW,346,2.0,7.0,36,0.00,,---,0.00,VWS V14.01,2013-11-29 20:22:00,
2013-11-29 14:27:00,60.8,33.7,30.34,NNW,344,2.0,8.0,36,0.00,,---,0.00,VWS V14.01,2013-11-29 20:27:00,
2013-11-29 14:32:00,60.6,32.8,30.34,NNW,345,1.0,4.0,35,0.00,,---,0.00,VWS V14.01,2013-11-29 20:32:00,
2013-11-29 14:38:00,60.7,33.6,30.34,NNW,330,3.0,4.0,36,0.00,,---,0.00,VWS V14.01,2013-11-29 20:38:00,
2013-11-29 14:43:00,60.7,34.3,30.34,NE,35,1.0,5.0,37,0.00,,---,0.00,VWS V14.01,2013-11-29 20:43:00,
2013-11-29 14:48:00,60.4,33.3,30.34,NNE,30,5.0,7.0,36,0.00,,---,0.00,VWS V14.01,2013-11-29 20:48:00,
2013-11-29 14:53:00,60.3,33.3,30.34,NE,45,2.0,7.0,36,0.00,,---,0.00,VWS V14.01,2013-11-29 20:53:00,
2013-11-29 14:58:00,60.1,33.8,30.34,North,349,2.0,7.0,37,0.00,,---,0.00,VWS V14.01,2013-11-29 20:58:00,
2013-11-29 15:03:00,59.9,32.9,30.34,North,11,7.0,7.0,36,0.00,,---,0.00,VWS V14.01,2013-11-29 21:03:00,
2013-11-29 15:08:00,59.8,33.5,30.34,NW,324,3.0,7.0,37,0.00,,---,0.00,VWS V14.01,2013-11-29 21:08:00,
2013-11-29 15:13:00,59.7,34.1,30.34,North,11,1.0,7.0,38,0.00,,---,0.00,VWS V14.01,2013-11-29 21:13:00,
2013-11-29 15:18:00,59.7,34.1,30.34,NNE,27,4.0,7.0,38,0.00,,---,0.00,VWS V14.01,2013-11-29 21:18:00,
2013-11-29 15:23:00,59.5,33.9,30.34,NNW,341,4.0,7.0,38,0.00,,---,0.00,VWS V14.01,2013-11-29 21:23:00,
2013-11-29 15:28:00,59.4,33.0,30.34,NNE,19,1.0,7.0,37,0.00,,,0.00,weatherlink.com 1.10,2013-11-29 21:28:00,
2013-11-29 15:34:00,59.3,33.7,30.34,NNE,32,0.0,3.0,38,0.00,,---,0.00,VWS V14.01,2013-11-29 21:34:00,
2013-11-29 15:39:00,59.2,33.6,30.34,NNE,24,1.0,5.0,38,0.00,,---,0.00,VWS V14.01,2013-11-29 21:39:00,
2013-11-29 15:44:00,59.1,34.8,30.34,NNE,33,2.0,5.0,40,0.00,,---,0.00,VWS V14.01,2013-11-29 21:44:00,
2013-11-29 15:49:00,58.9,34.6,30.34,NNE,30,2.0,5.0,40,0.00,,---,0.00,VWS V14.01,2013-11-29 21:49:00,
2013-11-29 15:54:00,58.7,33.8,30.34,NE,55,2.0,5.0,39,0.00,,---,0.00,VWS V14.01,2013-11-29 21:54:00,
2013-11-29 15:59:00,58.5,34.3,30.34,NE,55,0.0,5.0,40,0.00,,---,0.00,VWS V14.01,2013-11-29 21:59:00,
2013-11-29 16:04:00,58.3,34.7,30.34,North,5,0.0,4.0,41,0.00,,---,0.00,VWS V14.01,2013-11-29 22:04:00,
2013-11-29 16:09:00,58.1,34.5,30.34,NNE,31,0.0,4.0,41,0.00,,---,0.00,VWS V14.01,2013-11-29 22:09:00,
2013-11-29 16:14:00,57.8,34.3,30.34,NNE,16,1.0,4.0,41,0.00,,---,0.00,VWS V14.01,2013-11-29 22:14:00,
2013-11-29 16:19:00,57.5,34.6,30.34,NNE,16,0.0,4.0,42,0.00,,---,0.00,VWS V14.01,2013-11-29 22:19:00,
2013-11-29 16:24:00,57.2,34.3,30.34,NNE,19,0.0,4.0,42,0.00,,---,0.00,VWS V14.01,2013-11-29 22:24:00,
2013-11-29 16:29:00,56.9,35.2,30.34,NNE,19,0.0,4.0,44,0.00,,---,0.00,VWS V14.01,2013-11-29 22:29:00,
2013-11-29 16:34:00,56.6,36.1,30.34,NNE,19,0.0,1.0,46,0.00,,---,0.00,VWS V14.01,2013-11-29 22:34:00,
2013-11-29 16:39:00,56.0,35.5,30.34,NNE,19,0.0,2.0,46,0.00,,---,0.00,VWS V14.01,2013-11-29 22:39:00,
2013-11-29 16:45:00,55.4,35.5,30.34,NNE,19,0.0,2.0,47,0.00,,---,0.00,VWS V14.01,2013-11-29 22:45:00,
2013-11-29 16:50:00,54.9,36.1,30.34,NNE,18,1.0,3.0,49,0.00,,---,0.00,VWS V14.01,2013-11-29 22:50:00,
2013-11-29 16:55:00,54.4,35.7,30.34,NNE,18,0.0,3.0,49,0.00,,---,0.00,VWS V14.01,2013-11-29 22:55:00,
2013-11-29 17:00:00,53.9,36.2,30.34,NNE,18,0.0,3.0,51,0.00,,---,0.00,VWS V14.01,2013-11-29 23:00:00,
2013-11-29 17:05:00,53.4,36.7,30.35,NNE,18,0.0,0.0,53,0.00,,---,0.00,VWS V14.01,2013-11-29 23:05:00,
2013-11-29 17:10:00,52.8,36.6,30.35,NNE,18,0.0,0.0,54,0.00,,---,0.00,VWS V14.01,2013-11-29 23:10:00,
2013-11-29 17:15:00,52.1,36.4,30.35,NNE,18,0.0,0.0,55,0.00,,---,0.00,VWS V14.01,2013-11-29 23:15:00,
2013-11-29 17:20:00,51.4,36.7,30.35,NNE,18,0.0,0.0,57,0.00,,---,0.00,VWS V14.01,2013-11-29 23:20:00,
2013-11-29 17:25:00,50.8,37.0,30.35,NNE,18,0.0,0.0,59,0.00,,---,0.00,VWS V14.01,2013-11-29 23:25:00,
2013-11-29 17:30:00,50.2,36.9,30.36,NNE,18,0.0,0.0,60,0.00,,---,0.00,VWS V14.01,2013-11-29 23:30:00,
2013-11-29 17:35:00,49.7,36.4,30.36,NNE,18,0.0,0.0,60,0.00,,---,0.00,VWS V14.01,2013-11-29 23:35:00,
2013-11-29 17:41:00,49.3,36.4,30.36,NNE,18,0.0,0.0,61,0.00,,---,0.00,VWS V14.01,2013-11-29 23:41:00,
2013-11-29 17:46:00,48.7,37.1,30.36,NNE,18,0.0,0.0,64,0.00,,---,0.00,VWS V14.01,2013-11-29 23:46:00,
2013-11-29 17:51:00,48.0,37.2,30.36,NNE,18,0.0,0.0,66,0.00,,---,0.00,VWS V14.01,2013-11-29 23:51:00,
2013-11-29 17:56:00,47.5,36.7,30.36,NNE,18,0.0,0.0,66,0.00,,---,0.00,VWS V14.01,2013-11-29 23:56:00,
2013-11-29 18:01:00,47.0,36.6,30.37,NNE,18,0.0,0.0,67,0.00,,---,0.00,VWS V14.01,2013-11-30 00:01:00,
2013-11-29 18:06:00,46.5,36.5,30.37,NNE,18,0.0,0.0,68,0.00,,---,0.00,VWS V14.01,2013-11-30 00:06:00,
2013-11-29 18:11:00,46.0,36.4,30.37,NNE,18,0.0,0.0,69,0.00,,---,0.00,VWS V14.01,2013-11-30 00:11:00,
2013-11-29 18:16:00,45.8,36.6,30.36,NNE,18,0.0,0.0,70,0.00,,---,0.00,VWS V14.01,2013-11-30 00:16:00,
2013-11-29 18:21:00,45.6,36.8,30.36,NNE,18,0.0,0.0,71,0.00,,---,0.00,VWS V14.01,2013-11-30 00:21:00,
2013-11-29 18:26:00,45.4,36.9,30.36,NNE,18,0.0,0.0,72,0.00,,---,0.00,VWS V14.01,2013-11-30 00:26:00,
2013-11-29 18:31:00,45.1,36.6,30.36,NNE,18,0.0,0.0,72,0.00,,---,0.00,VWS V14.01,2013-11-30 00:31:00,
2013-11-29 18:36:00,45.1,36.6,30.36,NNE,18,0.0,1.0,72,0.00,,---,0.00,VWS V14.01,2013-11-30 00:36:00,
2013-11-29 18:41:00,45.1,36.6,30.36,NNE,18,0.0,1.0,72,0.00,,---,0.00,VWS V14.01,2013-11-30 00:41:00,
2013-11-29 18:46:00,44.9,36.8,30.36,NNE,18,0.0,1.0,73,0.00,,---,0.00,VWS V14.01,2013-11-30 00:46:00,
2013-11-29 18:52:00,44.8,36.7,30.36,NNE,18,0.0,1.0,73,0.00,,---,0.00,VWS V14.01,2013-11-30 00:52:00,
2013-11-29 18:57:00,44.6,36.5,30.36,NNE,18,0.0,1.0,73,0.00,,---,0.00,VWS V14.01,2013-11-30 00:57:00,
2013-11-29 19:02:00,44.4,36.7,30.36,NNE,18,0.0,0.0,74,0.00,,---,0.00,VWS V14.01,2013-11-30 01:02:00,
2013-11-29 19:07:00,44.3,36.9,30.36,NNE,18,0.0,0.0,75,0.00,,---,0.00,VWS V14.01,2013-11-30 01:07:00,
2013-11-29 19:12:00,44.1,36.7,30.36,NNE,18,0.0,0.0,75,0.00,,---,0.00,VWS V14.01,2013-11-30 01:12:00,
2013-11-29 19:17:00,43.9,36.8,30.37,NNE,18,0.0,0.0,76,0.00,,---,0.00,VWS V14.01,2013-11-30 01:17:00,
2013-11-29 19:22:00,43.6,36.9,30.37,NNE,18,0.0,1.0,77,0.00,,---,0.00,VWS V14.01,2013-11-30 01:22:00,
2013-11-29 19:27:00,43.2,36.5,30.37,NNE,18,0.0,1.0,77,0.00,,---,0.00,VWS V14.01,2013-11-30 01:27:00,
2013-11-29 19:32:00,43.0,36.6,30.38,NNE,18,0.0,0.0,78,0.00,,---,0.00,VWS V14.01,2013-11-30 01:32:00,
2013-11-29 19:37:00,42.9,36.5,30.38,NNE,18,0.0,0.0,78,0.00,,---,0.00,VWS V14.01,2013-11-30 01:37:00,
2013-11-29 19:42:00,42.7,36.3,30.38,NNE,18,0.0,0.0,78,0.00,,---,0.00,VWS V14.01,2013-11-30 01:42:00,
2013-11-29 19:47:00,42.4,36.0,30.38,NNE,18,1.0,2.0,78,0.00,,,0.00,weatherlink.com 1.10,2013-11-30 01:47:00,
2013-11-29 19:53:00,42.2,35.8,30.38,NNE,18,0.0,1.0,78,0.00,,---,0.00,VWS V14.01,2013-11-30 01:53:00,
2013-11-29 19:58:00,42.0,35.7,30.38,NNE,18,0.0,1.0,78,0.00,,---,0.00,VWS V14.01,2013-11-30 01:58:00,
2013-11-29 20:03:00,41.8,35.5,30.39,NNE,18,0.0,0.0,78,0.00,,---,0.00,VWS V14.01,2013-11-30 02:03:00,
2013-11-29 20:08:00,41.6,35.6,30.39,NNE,18,0.0,0.0,79,0.00,,---,0.00,VWS V14.01,2013-11-30 02:08:00,
2013-11-29 20:13:00,41.5,35.5,30.39,NNE,18,0.0,0.0,79,0.00,,---,0.00,VWS V14.01,2013-11-30 02:13:00,
2013-11-29 20:18:00,41.3,35.3,30.38,NNE,18,0.0,0.0,79,0.00,,---,0.00,VWS V14.01,2013-11-30 02:18:00,
2013-11-29 20:23:00,41.1,35.4,30.38,NNE,18,0.0,0.0,80,0.00,,---,0.00,VWS V14.01,2013-11-30 02:23:00,
2013-11-29 20:28:00,40.9,35.2,30.38,NNE,18,0.0,0.0,80,0.00,,---,0.00,VWS V14.01,2013-11-30 02:28:00,
2013-11-29 20:33:00,40.7,35.3,30.38,NNE,18,0.0,0.0,81,0.00,,---,0.00,VWS V14.01,2013-11-30 02:33:00,
2013-11-29 20:38:00,40.5,35.1,30.38,NNE,18,0.0,0.0,81,0.00,,---,0.00,VWS V14.01,2013-11-30 02:38:00,
2013-11-29 20:43:00,40.4,35.0,30.38,NNE,18,0.0,0.0,81,0.00,,---,0.00,VWS V14.01,2013-11-30 02:43:00,
2013-11-29 20:48:00,40.2,35.2,30.38,NNE,18,0.0,0.0,82,0.00,,---,0.00,VWS V14.01,2013-11-30 02:48:00,
2013-11-29 20:53:00,40.1,35.1,30.38,NNE,18,0.0,0.0,82,0.00,,---,0.00,VWS V14.01,2013-11-30 02:53:00,
2013-11-29 20:59:00,39.9,34.9,30.38,NNE,18,0.0,0.0,82,0.00,,---,0.00,VWS V14.01,2013-11-30 02:59:00,
2013-11-29 21:04:00,39.8,34.8,30.38,NNE,18,0.0,0.0,82,0.00,,---,0.00,VWS V14.01,2013-11-30 03:04:00,
2013-11-29 21:09:00,39.8,34.8,30.38,NNE,18,0.0,0.0,82,0.00,,---,0.00,VWS V14.01,2013-11-30 03:09:00,
2013-11-29 21:14:00,39.6,34.9,30.37,NNE,18,0.0,0.0,83,0.00,,---,0.00,VWS V14.01,2013-11-30 03:14:00,
2013-11-29 21:19:00,39.5,34.8,30.37,NNE,18,0.0,0.0,83,0.00,,---,0.00,VWS V14.01,2013-11-30 03:19:00,
2013-11-29 21:24:00,39.3,34.6,30.37,NNE,18,0.0,0.0,83,0.00,,---,0.00,VWS V14.01,2013-11-30 03:24:00,
2013-11-29 21:29:00,39.2,34.8,30.37,NNE,18,0.0,0.0,84,0.00,,---,0.00,VWS V14.01,2013-11-30 03:29:00,
2013-11-29 21:34:00,39.0,34.6,30.37,NNE,18,0.0,0.0,84,0.00,,---,0.00,VWS V14.01,2013-11-30 03:34:00,
2013-11-29 21:39:00,38.7,34.3,30.37,NNE,18,0.0,0.0,84,0.00,,---,0.00,VWS V14.01,2013-11-30 03:39:00,
2013-11-29 21:44:00,38.4,34.3,30.37,NNE,18,0.0,0.0,85,0.00,,---,0.00,VWS V14.01,2013-11-30 03:44:00,
2013-11-29 21:49:00,38.1,34.0,30.37,NNE,18,0.0,0.0,85,0.00,,---,0.00,VWS V14.01,2013-11-30 03:49:00,
2013-11-29 21:54:00,37.9,34.1,30.36,NNE,18,0.0,0.0,86,0.00,,---,0.00,VWS V14.01,2013-11-30 03:54:00,
2013-11-29 21:59:00,37.8,34.0,30.36,NNE,18,1.0,2.0,86,0.00,,---,0.00,VWS V14.01,2013-11-30 03:59:00,
2013-11-29 22:04:00,37.8,34.0,30.37,NNE,18,0.0,2.0,86,0.00,,---,0.00,VWS V14.01,2013-11-30 04:04:00,
2013-11-29 22:10:00,37.7,34.2,30.37,NNE,18,0.0,2.0,87,0.00,,---,0.00,VWS V14.01,2013-11-30 04:10:00,
2013-11-29 22:15:00,37.7,34.2,30.37,NNE,18,0.0,2.0,87,0.00,,---,0.00,VWS V14.01,2013-11-30 04:15:00,
2013-11-29 22:20:00,37.7,33.9,30.36,NNE,18,0.0,2.0,86,0.00,,---,0.00,VWS V14.01,2013-11-30 04:20:00,
2013-11-29 22:25:00,37.7,33.9,30.36,NNE,18,0.0,2.0,86,0.00,,---,0.00,VWS V14.01,2013-11-30 04:25:00,
2013-11-29 22:30:00,37.8,34.0,30.36,NNE,18,0.0,2.0,86,0.00,,---,0.00,VWS V14.01,2013-11-30 04:30:00,
2013-11-29 22:35:00,37.8,34.0,30.36,NNE,18,0.0,1.0,86,0.00,,---,0.00,VWS V14.01,2013-11-30 04:35:00,
2013-11-29 22:40:00,37.8,34.0,30.36,NNE,18,0.0,1.0,86,0.00,,---,0.00,VWS V14.01,2013-11-30 04:40:00,
2013-11-29 22:45:00,37.8,34.0,30.36,NNE,18,0.0,1.0,86,0.00,,---,0.00,VWS V14.01,2013-11-30 04:45:00,
2013-11-29 22:50:00,37.7,33.9,30.36,NNE,18,0.0,1.0,86,0.00,,---,0.00,VWS V14.01,2013-11-30 04:50:00,
2013-11-29 22:55:00,37.6,33.8,30.36,NNE,18,0.0,1.0,86,0.00,,---,0.00,VWS V14.01,2013-11-30 04:55:00,
2013-11-29 23:00:00,37.4,33.6,30.36,NNE,18,0.0,2.0,86,0.00,,---,0.00,VWS V14.01,2013-11-30 05:00:00,
2013-11-29 23:01:00,37.4,33.6,30.36,NNE,18,0.0,2.0,86,0.00,,---,0.00,VWS V14.01,2013-11-30 05:01:00,
2013-11-29 23:02:00,37.4,33.6,30.36,NNE,18,0.0,0.0,86,0.00,,---,0.00,VWS V14.01,2013-11-30 05:02:00,
2013-11-29 23:03:00,37.4,33.6,30.36,NNE,18,0.0,0.0,86,0.00,,---,0.00,VWS V14.01,2013-11-30 05:03:00,
2013-11-29 23:08:00,37.2,33.7,30.36,NNE,18,1.0,1.0,87,0.00,,---,0.00,VWS V14.01,2013-11-30 05:08:00,
2013-11-29 23:13:00,37.1,33.3,30.35,NNE,18,0.0,1.0,86,0.00,,---,0.00,VWS V14.01,2013-11-30 05:13:00,
2013-11-29 23:18:00,37.0,33.5,30.35,NNE,18,0.0,1.0,87,0.00,,---,0.00,VWS V14.01,2013-11-30 05:18:00,
2013-11-29 23:23:00,36.9,33.4,30.35,NNE,18,0.0,1.0,87,0.00,,---,0.00,VWS V14.01,2013-11-30 05:23:00,
2013-11-29 23:28:00,36.8,33.3,30.35,NNE,18,0.0,1.0,87,0.00,,---,0.00,VWS V14.01,2013-11-30 05:28:00,
2013-11-29 23:34:00,36.8,33.3,30.35,NNE,18,0.0,0.0,87,0.00,,---,0.00,VWS V14.01,2013-11-30 05:34:00,
2013-11-29 23:39:00,36.6,33.1,30.35,NNE,18,0.0,0.0,87,0.00,,---,0.00,VWS V14.01,2013-11-30 05:39:00,
2013-11-29 23:44:00,36.6,33.4,30.35,NNE,18,0.0,0.0,88,0.00,,---,0.00,VWS V14.01,2013-11-30 05:44:00,
2013-11-29 23:49:00,36.5,33.3,30.35,NNE,18,0.0,1.0,88,0.00,,---,0.00,VWS V14.01,2013-11-30 05:49:00,
2013-11-29 23:54:00,36.5,33.3,30.35,NNE,18,0.0,1.0,88,0.00,,---,0.00,VWS V14.01,2013-11-30 05:54:00,
2013-11-29 23:59:00,36.4,33.2,30.35,NNE,18,0.0,1.0,88,0.00,,---,0.00,VWS V14.01,2013-11-30 05:59:00,